owner,sensor,date,latitude,longitude,mass_concentration_of_chlorophyll_in_sea_water,qcFlag 
SCCF RECON,ioos:station:SCCF:12:1,2012-10-01T00:00:00Z,26.4966,-82.1479,8.68,1111122 
SCCF RECON,ioos:station:SCCF:12:1,2012-10-01T01:00:00Z,26.4966,-82.1479,8.13,1111122 
SCCF RECON,ioos:station:SCCF:12:1,2012-10-01T02:00:00Z,26.4966,-82.1479,9.81,1111122 
SCCF RECON,ioos:station:SCCF:12:1,2012-10-01T03:00:00Z,26.4966,-82.1479,7.96,1111122 
SCCF RECON,ioos:station:SCCF:12:1,2012-10-01T04:00:00Z,26.4966,-82.1479,6.96,1111122 
SCCF RECON,ioos:station:SCCF:12:1,2012-10-01T05:00:00Z,26.4966,-82.1479,6.65,1111122 
SCCF RECON,ioos:station:SCCF:12:1,2012-10-01T06:00:00Z,26.4966,-82.1479,6.63,1111122 
SCCF RECON,ioos:station:SCCF:12:1,2012-10-01T07:00:00Z,26.4966,-82.1479,6.58,1111122 
SCCF RECON,ioos:station:SCCF:12:1,2012-10-01T08:00:00Z,26.4966,-82.1479,8.22,1111122 
SCCF RECON,ioos:station:SCCF:12:1,2012-10-01T09:00:00Z,26.4966,-82.1479,9.5,1111122 
SCCF RECON,ioos:station:SCCF:12:1,2012-10-01T10:00:00Z,26.4966,-82.1479,9.11,1111122 
SCCF RECON,ioos:station:SCCF:12:1,2012-10-01T11:00:00Z,26.4966,-82.1479,8.35,1111122 
SCCF RECON,ioos:station:SCCF:12:1,2012-10-01T12:00:00Z,26.4966,-82.1479,9.39,1111122 
SCCF RECON,ioos:station:SCCF:12:1,2012-10-01T13:00:00Z,26.4966,-82.1479,8.05,1111122 
SCCF RECON,ioos:station:SCCF:12:1,2012-10-01T14:00:00Z,26.4966,-82.1479,7.87,1111122 
SCCF RECON,ioos:station:SCCF:12:1,2012-10-01T15:00:00Z,26.4966,-82.1479,8.53,1111122 
SCCF RECON,ioos:station:SCCF:12:1,2012-10-01T16:00:00Z,26.4966,-82.1479,8.53,1111122 
SCCF RECON,ioos:station:SCCF:12:1,2012-10-01T17:00:00Z,26.4966,-82.1479,9.4,1111122 
SCCF RECON,ioos:station:SCCF:12:1,2012-10-01T18:00:00Z,26.4966,-82.1479,10.33,1111122 
SCCF RECON,ioos:station:SCCF:12:1,2012-10-01T19:00:00Z,26.4966,-82.1479,10.63,1111122 
SCCF RECON,ioos:station:SCCF:12:1,2012-10-01T20:00:00Z,26.4966,-82.1479,9.24,1111122 
SCCF RECON,ioos:station:SCCF:12:1,2012-10-01T21:00:00Z,26.4966,-82.1479,9.78,1111122 
SCCF RECON,ioos:station:SCCF:12:1,2012-10-01T22:00:00Z,26.4966,-82.1479,8.71,1111122 
SCCF RECON,ioos:station:SCCF:12:1,2012-10-01T23:00:00Z,26.4966,-82.1479,9.17,1111122 
SCCF RECON,ioos:station:SCCF:12:1,2012-10-02T00:00:00Z,26.4966,-82.1479,7.64,1111122 
SCCF RECON,ioos:station:SCCF:12:1,2012-10-02T01:00:00Z,26.4966,-82.1479,7.78,1111122 
SCCF RECON,ioos:station:SCCF:12:1,2012-10-02T02:00:00Z,26.4966,-82.1479,7.54,1111122 
SCCF RECON,ioos:station:SCCF:12:1,2012-10-02T03:00:00Z,26.4966,-82.1479,7.24,1111122 
SCCF RECON,ioos:station:SCCF:12:1,2012-10-02T04:00:00Z,26.4966,-82.1479,6.83,1111122 
SCCF RECON,ioos:station:SCCF:12:1,2012-10-02T05:00:00Z,26.4966,-82.1479,6.22,1111122 
SCCF RECON,ioos:station:SCCF:12:1,2012-10-02T06:00:00Z,26.4966,-82.1479,7.57,1111122 
SCCF RECON,ioos:station:SCCF:12:1,2012-10-02T07:00:00Z,26.4966,-82.1479,7.72,1111122 
SCCF RECON,ioos:station:SCCF:12:1,2012-10-02T08:00:00Z,26.4966,-82.1479,5.76,1111122 
SCCF RECON,ioos:station:SCCF:12:1,2012-10-02T09:00:00Z,26.4966,-82.1479,7.96,1111122 
SCCF RECON,ioos:station:SCCF:12:1,2012-10-02T10:00:00Z,26.4966,-82.1479,5.99,1111122 
SCCF RECON,ioos:station:SCCF:12:1,2012-10-02T11:00:00Z,26.4966,-82.1479,5.73,1111122 
SCCF RECON,ioos:station:SCCF:12:1,2012-10-02T12:00:00Z,26.4966,-82.1479,6.22,1111122 
SCCF RECON,ioos:station:SCCF:12:1,2012-10-02T13:00:00Z,26.4966,-82.1479,6.18,1111122 
SCCF RECON,ioos:station:SCCF:12:1,2012-10-02T14:00:00Z,26.4966,-82.1479,5.47,1111122 
SCCF RECON,ioos:station:SCCF:12:1,2012-10-02T15:00:00Z,26.4966,-82.1479,5.85,1111122 
SCCF RECON,ioos:station:SCCF:12:1,2012-10-02T16:00:00Z,26.4966,-82.1479,5.64,1111122 
SCCF RECON,ioos:station:SCCF:12:1,2012-10-02T17:00:00Z,26.4966,-82.1479,6.13,1111122 
SCCF RECON,ioos:station:SCCF:12:1,2012-10-02T18:00:00Z,26.4966,-82.1479,6.34,1111122 
SCCF RECON,ioos:station:SCCF:12:1,2012-10-02T19:00:00Z,26.4966,-82.1479,7.96,1111122 
SCCF RECON,ioos:station:SCCF:12:1,2012-10-02T20:00:00Z,26.4966,-82.1479,7.34,1111122 
SCCF RECON,ioos:station:SCCF:12:1,2012-10-02T21:00:00Z,26.4966,-82.1479,8.38,1111122 
SCCF RECON,ioos:station:SCCF:12:1,2012-10-02T22:00:00Z,26.4966,-82.1479,7.67,1111122 
SCCF RECON,ioos:station:SCCF:12:1,2012-10-02T23:00:00Z,26.4966,-82.1479,7.08,1111122 
SCCF RECON,ioos:station:SCCF:12:1,2012-10-03T00:00:00Z,26.4966,-82.1479,5.6,1111122 
SCCF RECON,ioos:station:SCCF:12:1,2012-10-03T01:00:00Z,26.4966,-82.1479,5.95,1111122 
SCCF RECON,ioos:station:SCCF:12:1,2012-10-03T02:00:00Z,26.4966,-82.1479,5.65,1111122 
SCCF RECON,ioos:station:SCCF:12:1,2012-10-03T03:00:00Z,26.4966,-82.1479,4.43,1111122 
SCCF RECON,ioos:station:SCCF:12:1,2012-10-03T04:00:00Z,26.4966,-82.1479,5.18,1111122 
SCCF RECON,ioos:station:SCCF:12:1,2012-10-03T05:00:00Z,26.4966,-82.1479,4.96,1111122 
SCCF RECON,ioos:station:SCCF:12:1,2012-10-03T06:00:00Z,26.4966,-82.1479,4.48,1111122 
SCCF RECON,ioos:station:SCCF:12:1,2012-10-03T07:00:00Z,26.4966,-82.1479,4.12,1111122 
SCCF RECON,ioos:station:SCCF:12:1,2012-10-03T08:00:00Z,26.4966,-82.1479,4.49,1111122 
SCCF RECON,ioos:station:SCCF:12:1,2012-10-03T09:00:00Z,26.4966,-82.1479,4.52,1111122 
SCCF RECON,ioos:station:SCCF:12:1,2012-10-03T10:00:00Z,26.4966,-82.1479,4.88,1111122 
SCCF RECON,ioos:station:SCCF:12:1,2012-10-03T11:00:00Z,26.4966,-82.1479,4.21,1111122 
SCCF RECON,ioos:station:SCCF:12:1,2012-10-03T12:00:00Z,26.4966,-82.1479,4.31,1111122 
SCCF RECON,ioos:station:SCCF:12:1,2012-10-03T13:00:00Z,26.4966,-82.1479,4.29,1111122 
SCCF RECON,ioos:station:SCCF:12:1,2012-10-03T14:00:00Z,26.4966,-82.1479,4.14,1111122 
SCCF RECON,ioos:station:SCCF:12:1,2012-10-03T15:00:00Z,26.4966,-82.1479,4.26,1111122 
SCCF RECON,ioos:station:SCCF:12:1,2012-10-03T16:00:00Z,26.4966,-82.1479,4.21,1111122 
SCCF RECON,ioos:station:SCCF:12:1,2012-10-03T17:00:00Z,26.4966,-82.1479,4.62,1111122 
SCCF RECON,ioos:station:SCCF:12:1,2012-10-03T18:00:00Z,26.4966,-82.1479,5.15,1111122 
SCCF RECON,ioos:station:SCCF:12:1,2012-10-03T19:00:00Z,26.4966,-82.1479,5.01,1111122 
SCCF RECON,ioos:station:SCCF:12:1,2012-10-03T20:00:00Z,26.4966,-82.1479,6.55,1111122 
SCCF RECON,ioos:station:SCCF:12:1,2012-10-03T21:00:00Z,26.4966,-82.1479,6.7,1111122 
SCCF RECON,ioos:station:SCCF:12:1,2012-10-03T22:00:00Z,26.4966,-82.1479,6.46,1111122 
SCCF RECON,ioos:station:SCCF:12:1,2012-10-03T23:00:00Z,26.4966,-82.1479,5.95,1111122 
SCCF RECON,ioos:station:SCCF:12:1,2012-10-04T00:00:00Z,26.4966,-82.1479,5.74,1111122 
SCCF RECON,ioos:station:SCCF:12:1,2012-10-04T01:00:00Z,26.4966,-82.1479,6.01,1111122 
SCCF RECON,ioos:station:SCCF:12:1,2012-10-04T02:00:00Z,26.4966,-82.1479,5.9,1111122 
SCCF RECON,ioos:station:SCCF:12:1,2012-10-04T03:00:00Z,26.4966,-82.1479,5.66,1111122 
SCCF RECON,ioos:station:SCCF:12:1,2012-10-04T04:00:00Z,26.4966,-82.1479,5.58,1111122 
SCCF RECON,ioos:station:SCCF:12:1,2012-10-04T05:00:00Z,26.4966,-82.1479,5.05,1111122 
SCCF RECON,ioos:station:SCCF:12:1,2012-10-04T06:00:00Z,26.4966,-82.1479,5.06,1111122 
SCCF RECON,ioos:station:SCCF:12:1,2012-10-04T07:00:00Z,26.4966,-82.1479,4.72,1111122 
SCCF RECON,ioos:station:SCCF:12:1,2012-10-04T08:00:00Z,26.4966,-82.1479,4.45,1111122 
SCCF RECON,ioos:station:SCCF:12:1,2012-10-04T09:00:00Z,26.4966,-82.1479,4.26,1111122 
SCCF RECON,ioos:station:SCCF:12:1,2012-10-04T10:00:00Z,26.4966,-82.1479,5.35,1111122 
SCCF RECON,ioos:station:SCCF:12:1,2012-10-04T11:00:00Z,26.4966,-82.1479,5.42,1111122 
SCCF RECON,ioos:station:SCCF:12:1,2012-10-04T12:00:00Z,26.4966,-82.1479,4.8,1111122 
SCCF RECON,ioos:station:SCCF:12:1,2012-10-04T13:00:00Z,26.4966,-82.1479,5.31,1111122 
SCCF RECON,ioos:station:SCCF:12:1,2012-10-04T14:00:00Z,26.4966,-82.1479,5.9,1111122 
SCCF RECON,ioos:station:SCCF:12:1,2012-10-04T15:00:00Z,26.4966,-82.1479,5.65,1111122 
SCCF RECON,ioos:station:SCCF:12:1,2012-10-04T16:00:00Z,26.4966,-82.1479,4.98,1111122 
SCCF RECON,ioos:station:SCCF:12:1,2012-10-04T17:00:00Z,26.4966,-82.1479,4.7,1111122 
SCCF RECON,ioos:station:SCCF:12:1,2012-10-04T18:00:00Z,26.4966,-82.1479,5.07,1111122 
SCCF RECON,ioos:station:SCCF:12:1,2012-10-04T19:00:00Z,26.4966,-82.1479,4.98,1111122 
SCCF RECON,ioos:station:SCCF:12:1,2012-10-04T20:00:00Z,26.4966,-82.1479,6.39,1111122 
SCCF RECON,ioos:station:SCCF:12:1,2012-10-04T21:00:00Z,26.4966,-82.1479,6.8,1111122 
SCCF RECON,ioos:station:SCCF:12:1,2012-10-04T22:00:00Z,26.4966,-82.1479,8.26,1111122 
SCCF RECON,ioos:station:SCCF:12:1,2012-10-04T23:00:00Z,26.4966,-82.1479,6.53,1111122 
SCCF RECON,ioos:station:SCCF:12:1,2012-10-05T00:00:00Z,26.4966,-82.1479,5.65,1111122 
SCCF RECON,ioos:station:SCCF:12:1,2012-10-05T01:00:00Z,26.4966,-82.1479,5.34,1111122 
SCCF RECON,ioos:station:SCCF:12:1,2012-10-05T02:00:00Z,26.4966,-82.1479,5.14,1111122 
SCCF RECON,ioos:station:SCCF:12:1,2012-10-05T03:00:00Z,26.4966,-82.1479,5.29,1111122 
SCCF RECON,ioos:station:SCCF:12:1,2012-10-05T04:00:00Z,26.4966,-82.1479,6.06,1111122 
SCCF RECON,ioos:station:SCCF:12:1,2012-10-05T05:00:00Z,26.4966,-82.1479,6.07,1111122 
SCCF RECON,ioos:station:SCCF:12:1,2012-10-05T06:00:00Z,26.4966,-82.1479,6.07,1111122 
SCCF RECON,ioos:station:SCCF:12:1,2012-10-05T07:00:00Z,26.4966,-82.1479,5.49,1111122 
SCCF RECON,ioos:station:SCCF:12:1,2012-10-05T08:00:00Z,26.4966,-82.1479,4.72,1111122 
SCCF RECON,ioos:station:SCCF:12:1,2012-10-05T09:00:00Z,26.4966,-82.1479,4.99,1111122 
SCCF RECON,ioos:station:SCCF:12:1,2012-10-05T10:00:00Z,26.4966,-82.1479,4.91,1111122 
SCCF RECON,ioos:station:SCCF:12:1,2012-10-05T11:00:00Z,26.4966,-82.1479,4.02,1111122 
SCCF RECON,ioos:station:SCCF:12:1,2012-10-05T12:00:00Z,26.4966,-82.1479,3.94,1111122 
SCCF RECON,ioos:station:SCCF:12:1,2012-10-05T13:00:00Z,26.4966,-82.1479,4.54,1111122 
SCCF RECON,ioos:station:SCCF:12:1,2012-10-05T14:00:00Z,26.4966,-82.1479,4.22,1111122 
SCCF RECON,ioos:station:SCCF:12:1,2012-10-05T15:00:00Z,26.4966,-82.1479,4.39,1111122 
SCCF RECON,ioos:station:SCCF:12:1,2012-10-05T16:00:00Z,26.4966,-82.1479,5.0,1111122 
SCCF RECON,ioos:station:SCCF:12:1,2012-10-05T17:00:00Z,26.4966,-82.1479,4.92,1111122 
SCCF RECON,ioos:station:SCCF:12:1,2012-10-05T18:00:00Z,26.4966,-82.1479,4.95,1111122 
SCCF RECON,ioos:station:SCCF:12:1,2012-10-05T19:00:00Z,26.4966,-82.1479,5.62,1111122 
SCCF RECON,ioos:station:SCCF:12:1,2012-10-05T20:00:00Z,26.4966,-82.1479,5.39,1111122 
SCCF RECON,ioos:station:SCCF:12:1,2012-10-05T21:00:00Z,26.4966,-82.1479,6.5,1111122 
SCCF RECON,ioos:station:SCCF:12:1,2012-10-05T22:00:00Z,26.4966,-82.1479,6.45,1111122 
SCCF RECON,ioos:station:SCCF:12:1,2012-10-05T23:00:00Z,26.4966,-82.1479,5.81,1111122 
SCCF RECON,ioos:station:SCCF:12:1,2012-10-06T00:00:00Z,26.4966,-82.1479,4.99,1111122 
SCCF RECON,ioos:station:SCCF:12:1,2012-10-06T01:00:00Z,26.4966,-82.1479,5.11,1111122 
SCCF RECON,ioos:station:SCCF:12:1,2012-10-06T02:00:00Z,26.4966,-82.1479,4.55,1111122 
SCCF RECON,ioos:station:SCCF:12:1,2012-10-06T03:00:00Z,26.4966,-82.1479,4.64,1111122 
SCCF RECON,ioos:station:SCCF:12:1,2012-10-06T04:00:00Z,26.4966,-82.1479,4.69,1111122 
SCCF RECON,ioos:station:SCCF:12:1,2012-10-06T05:00:00Z,26.4966,-82.1479,4.38,1111122 
SCCF RECON,ioos:station:SCCF:12:1,2012-10-06T06:00:00Z,26.4966,-82.1479,4.43,1111122 
SCCF RECON,ioos:station:SCCF:12:1,2012-10-06T07:00:00Z,26.4966,-82.1479,4.51,1111122 
SCCF RECON,ioos:station:SCCF:12:1,2012-10-06T08:00:00Z,26.4966,-82.1479,4.49,1111122 
SCCF RECON,ioos:station:SCCF:12:1,2012-10-06T09:00:00Z,26.4966,-82.1479,4.6,1111122 
SCCF RECON,ioos:station:SCCF:12:1,2012-10-06T10:00:00Z,26.4966,-82.1479,4.2,1111122 
SCCF RECON,ioos:station:SCCF:12:1,2012-10-06T11:00:00Z,26.4966,-82.1479,4.09,1111122 
SCCF RECON,ioos:station:SCCF:12:1,2012-10-06T12:00:00Z,26.4966,-82.1479,4.4,1111122 
SCCF RECON,ioos:station:SCCF:12:1,2012-10-06T13:00:00Z,26.4966,-82.1479,4.37,1111122 
SCCF RECON,ioos:station:SCCF:12:1,2012-10-06T14:00:00Z,26.4966,-82.1479,4.03,1111122 
SCCF RECON,ioos:station:SCCF:12:1,2012-10-06T15:00:00Z,26.4966,-82.1479,4.37,1111122 
SCCF RECON,ioos:station:SCCF:12:1,2012-10-06T16:00:00Z,26.4966,-82.1479,4.68,1111122 
SCCF RECON,ioos:station:SCCF:12:1,2012-10-06T17:00:00Z,26.4966,-82.1479,4.62,1111122 
SCCF RECON,ioos:station:SCCF:12:1,2012-10-06T18:00:00Z,26.4966,-82.1479,4.65,1111122 
SCCF RECON,ioos:station:SCCF:12:1,2012-10-06T19:00:00Z,26.4966,-82.1479,5.25,1111122 
SCCF RECON,ioos:station:SCCF:12:1,2012-10-06T20:00:00Z,26.4966,-82.1479,5.89,1111122 
SCCF RECON,ioos:station:SCCF:12:1,2012-10-06T21:00:00Z,26.4966,-82.1479,4.79,1111122 
SCCF RECON,ioos:station:SCCF:12:1,2012-10-06T22:00:00Z,26.4966,-82.1479,5.53,1111122 
SCCF RECON,ioos:station:SCCF:12:1,2012-10-06T23:00:00Z,26.4966,-82.1479,5.49,1111122 
SCCF RECON,ioos:station:SCCF:12:1,2012-10-07T00:00:00Z,26.4966,-82.1479,4.74,1111122 
SCCF RECON,ioos:station:SCCF:12:1,2012-10-07T01:00:00Z,26.4966,-82.1479,4.87,1111122 
SCCF RECON,ioos:station:SCCF:12:1,2012-10-07T02:00:00Z,26.4966,-82.1479,4.35,1111122 
SCCF RECON,ioos:station:SCCF:12:1,2012-10-07T03:00:00Z,26.4966,-82.1479,4.29,1111122 
SCCF RECON,ioos:station:SCCF:12:1,2012-10-07T04:00:00Z,26.4966,-82.1479,4.38,1111122 
SCCF RECON,ioos:station:SCCF:12:1,2012-10-07T05:00:00Z,26.4966,-82.1479,4.24,1111122 
SCCF RECON,ioos:station:SCCF:12:1,2012-10-07T06:00:00Z,26.4966,-82.1479,3.97,1111122 
SCCF RECON,ioos:station:SCCF:12:1,2012-10-07T07:00:00Z,26.4966,-82.1479,4.11,1111122 
SCCF RECON,ioos:station:SCCF:12:1,2012-10-07T08:00:00Z,26.4966,-82.1479,4.25,1111122 
SCCF RECON,ioos:station:SCCF:12:1,2012-10-07T09:00:00Z,26.4966,-82.1479,4.19,1111122 
SCCF RECON,ioos:station:SCCF:12:1,2012-10-07T10:00:00Z,26.4966,-82.1479,3.8,1111122 
SCCF RECON,ioos:station:SCCF:12:1,2012-10-07T11:00:00Z,26.4966,-82.1479,3.68,1111122 
SCCF RECON,ioos:station:SCCF:12:1,2012-10-07T12:00:00Z,26.4966,-82.1479,4.08,1111122 
SCCF RECON,ioos:station:SCCF:12:1,2012-10-07T13:00:00Z,26.4966,-82.1479,4.23,1111122 
SCCF RECON,ioos:station:SCCF:12:1,2012-10-07T14:00:00Z,26.4966,-82.1479,4.48,1111122 
SCCF RECON,ioos:station:SCCF:12:1,2012-10-07T15:00:00Z,26.4966,-82.1479,4.27,1111122 
SCCF RECON,ioos:station:SCCF:12:1,2012-10-07T16:00:00Z,26.4966,-82.1479,4.02,1111122 
SCCF RECON,ioos:station:SCCF:12:1,2012-10-07T17:00:00Z,26.4966,-82.1479,4.41,1111122 
SCCF RECON,ioos:station:SCCF:12:1,2012-10-07T18:00:00Z,26.4966,-82.1479,4.7,1111122 
SCCF RECON,ioos:station:SCCF:12:1,2012-10-07T19:00:00Z,26.4966,-82.1479,4.64,1111122 
SCCF RECON,ioos:station:SCCF:12:1,2012-10-07T20:00:00Z,26.4966,-82.1479,4.97,1111122 
SCCF RECON,ioos:station:SCCF:12:1,2012-10-07T21:00:00Z,26.4966,-82.1479,5.08,1111122 
SCCF RECON,ioos:station:SCCF:12:1,2012-10-07T22:00:00Z,26.4966,-82.1479,4.64,1111122 
SCCF RECON,ioos:station:SCCF:12:1,2012-10-07T23:00:00Z,26.4966,-82.1479,6.06,1111122 
SCCF RECON,ioos:station:SCCF:12:1,2012-10-08T00:00:00Z,26.4966,-82.1479,5.86,1111122 
SCCF RECON,ioos:station:SCCF:12:1,2012-10-08T01:00:00Z,26.4966,-82.1479,5.74,1111122 
SCCF RECON,ioos:station:SCCF:12:1,2012-10-08T02:00:00Z,26.4966,-82.1479,5.44,1111122 
SCCF RECON,ioos:station:SCCF:12:1,2012-10-08T03:00:00Z,26.4966,-82.1479,5.35,1111122 
SCCF RECON,ioos:station:SCCF:12:1,2012-10-08T04:00:00Z,26.4966,-82.1479,5.01,1111122 
SCCF RECON,ioos:station:SCCF:12:1,2012-10-08T05:00:00Z,26.4966,-82.1479,5.32,1111122 
SCCF RECON,ioos:station:SCCF:12:1,2012-10-08T06:00:00Z,26.4966,-82.1479,5.49,1111122 
SCCF RECON,ioos:station:SCCF:12:1,2012-10-08T07:00:00Z,26.4966,-82.1479,5.47,1111122 
SCCF RECON,ioos:station:SCCF:12:1,2012-10-08T08:00:00Z,26.4966,-82.1479,5.29,1111122 
SCCF RECON,ioos:station:SCCF:12:1,2012-10-08T09:00:00Z,26.4966,-82.1479,5.23,1111122 
SCCF RECON,ioos:station:SCCF:12:1,2012-10-08T10:00:00Z,26.4966,-82.1479,5.15,1111122 
SCCF RECON,ioos:station:SCCF:12:1,2012-10-08T11:00:00Z,26.4966,-82.1479,5.02,1111122 
SCCF RECON,ioos:station:SCCF:12:1,2012-10-08T12:00:00Z,26.4966,-82.1479,5.34,1111122 
SCCF RECON,ioos:station:SCCF:12:1,2012-10-08T13:00:00Z,26.4966,-82.1479,5.28,1111122 
SCCF RECON,ioos:station:SCCF:12:1,2012-10-08T14:00:00Z,26.4966,-82.1479,4.71,1111122 
SCCF RECON,ioos:station:SCCF:12:1,2012-10-08T15:00:00Z,26.4966,-82.1479,4.36,1111122 
SCCF RECON,ioos:station:SCCF:12:1,2012-10-08T16:00:00Z,26.4966,-82.1479,4.83,1111122 
SCCF RECON,ioos:station:SCCF:12:1,2012-10-08T17:00:00Z,26.4966,-82.1479,4.36,1111122 
SCCF RECON,ioos:station:SCCF:12:1,2012-10-08T18:00:00Z,26.4966,-82.1479,4.22,1111122 
SCCF RECON,ioos:station:SCCF:12:1,2012-10-08T19:00:00Z,26.4966,-82.1479,4.99,1111122 
SCCF RECON,ioos:station:SCCF:12:1,2012-10-08T20:00:00Z,26.4966,-82.1479,5.31,1111122 
SCCF RECON,ioos:station:SCCF:12:1,2012-10-08T21:00:00Z,26.4966,-82.1479,4.91,1111122 
SCCF RECON,ioos:station:SCCF:12:1,2012-10-08T22:00:00Z,26.4966,-82.1479,4.71,1111122 
SCCF RECON,ioos:station:SCCF:12:1,2012-10-08T23:00:00Z,26.4966,-82.1479,6.31,1111122 
SCCF RECON,ioos:station:SCCF:12:1,2012-10-09T00:00:00Z,26.4966,-82.1479,6.78,1111122 
SCCF RECON,ioos:station:SCCF:12:1,2012-10-09T01:00:00Z,26.4966,-82.1479,6.79,1111122 
SCCF RECON,ioos:station:SCCF:12:1,2012-10-09T02:00:00Z,26.4966,-82.1479,7.4,1111122 
SCCF RECON,ioos:station:SCCF:12:1,2012-10-09T03:00:00Z,26.4966,-82.1479,7.04,1111122 
SCCF RECON,ioos:station:SCCF:12:1,2012-10-09T04:00:00Z,26.4966,-82.1479,6.56,1111122 
SCCF RECON,ioos:station:SCCF:12:1,2012-10-09T05:00:00Z,26.4966,-82.1479,6.33,1111122 
SCCF RECON,ioos:station:SCCF:12:1,2012-10-09T06:00:00Z,26.4966,-82.1479,6.81,1111122 
SCCF RECON,ioos:station:SCCF:12:1,2012-10-09T07:00:00Z,26.4966,-82.1479,6.42,1111122 
SCCF RECON,ioos:station:SCCF:12:1,2012-10-09T08:00:00Z,26.4966,-82.1479,5.42,1111122 
SCCF RECON,ioos:station:SCCF:12:1,2012-10-09T09:00:00Z,26.4966,-82.1479,5.04,1111122 
SCCF RECON,ioos:station:SCCF:12:1,2012-10-09T10:00:00Z,26.4966,-82.1479,4.67,1111122 
SCCF RECON,ioos:station:SCCF:12:1,2012-10-09T11:00:00Z,26.4966,-82.1479,4.65,1111122 
SCCF RECON,ioos:station:SCCF:12:1,2012-10-09T12:00:00Z,26.4966,-82.1479,4.85,1111122 
SCCF RECON,ioos:station:SCCF:12:1,2012-10-09T13:00:00Z,26.4966,-82.1479,4.95,1111122 
SCCF RECON,ioos:station:SCCF:12:1,2012-10-09T14:00:00Z,26.4966,-82.1479,5.01,1111122 
SCCF RECON,ioos:station:SCCF:12:1,2012-10-09T15:00:00Z,26.4966,-82.1479,5.04,1111122 
SCCF RECON,ioos:station:SCCF:12:1,2012-10-09T16:00:00Z,26.4966,-82.1479,5.26,1111122 
SCCF RECON,ioos:station:SCCF:12:1,2012-10-09T17:00:00Z,26.4966,-82.1479,5.38,1111122 
SCCF RECON,ioos:station:SCCF:12:1,2012-10-09T18:00:00Z,26.4966,-82.1479,5.31,1111122 
SCCF RECON,ioos:station:SCCF:12:1,2012-10-09T19:00:00Z,26.4966,-82.1479,4.96,1111122 
SCCF RECON,ioos:station:SCCF:12:1,2012-10-09T20:00:00Z,26.4966,-82.1479,5.62,1111122 
SCCF RECON,ioos:station:SCCF:12:1,2012-10-09T21:00:00Z,26.4966,-82.1479,6.01,1111122 
SCCF RECON,ioos:station:SCCF:12:1,2012-10-09T22:00:00Z,26.4966,-82.1479,6.63,1111122 
SCCF RECON,ioos:station:SCCF:12:1,2012-10-09T23:00:00Z,26.4966,-82.1479,7.61,1111122 
SCCF RECON,ioos:station:SCCF:12:1,2012-10-10T00:00:00Z,26.4966,-82.1479,7.16,1111122 
SCCF RECON,ioos:station:SCCF:12:1,2012-10-10T01:00:00Z,26.4966,-82.1479,6.66,1111122 
SCCF RECON,ioos:station:SCCF:12:1,2012-10-10T02:00:00Z,26.4966,-82.1479,6.78,1111122 
SCCF RECON,ioos:station:SCCF:12:1,2012-10-10T03:00:00Z,26.4966,-82.1479,6.3,1111122 
SCCF RECON,ioos:station:SCCF:12:1,2012-10-10T04:00:00Z,26.4966,-82.1479,6.57,1111122 
SCCF RECON,ioos:station:SCCF:12:1,2012-10-10T05:00:00Z,26.4966,-82.1479,6.73,1111122 
SCCF RECON,ioos:station:SCCF:12:1,2012-10-10T06:00:00Z,26.4966,-82.1479,6.88,1111122 
SCCF RECON,ioos:station:SCCF:12:1,2012-10-10T07:00:00Z,26.4966,-82.1479,7.05,1111122 
SCCF RECON,ioos:station:SCCF:12:1,2012-10-10T08:00:00Z,26.4966,-82.1479,7.28,1111122 
SCCF RECON,ioos:station:SCCF:12:1,2012-10-10T09:00:00Z,26.4966,-82.1479,6.82,1111122 
SCCF RECON,ioos:station:SCCF:12:1,2012-10-10T10:00:00Z,26.4966,-82.1479,6.24,1111122 
SCCF RECON,ioos:station:SCCF:12:1,2012-10-10T11:00:00Z,26.4966,-82.1479,6.25,1111122 
SCCF RECON,ioos:station:SCCF:12:1,2012-10-10T12:00:00Z,26.4966,-82.1479,6.64,1111122 
SCCF RECON,ioos:station:SCCF:12:1,2012-10-10T13:00:00Z,26.4966,-82.1479,6.62,1111122 
SCCF RECON,ioos:station:SCCF:12:1,2012-10-10T14:00:00Z,26.4966,-82.1479,6.48,1111122 
SCCF RECON,ioos:station:SCCF:12:1,2012-10-10T15:00:00Z,26.4966,-82.1479,6.32,1111122 
SCCF RECON,ioos:station:SCCF:12:1,2012-10-10T16:00:00Z,26.4966,-82.1479,7.13,1111122 
SCCF RECON,ioos:station:SCCF:12:1,2012-10-10T17:00:00Z,26.4966,-82.1479,8.03,1111122 
SCCF RECON,ioos:station:SCCF:12:1,2012-10-10T18:00:00Z,26.4966,-82.1479,7.07,1111122 
SCCF RECON,ioos:station:SCCF:12:1,2012-10-10T19:00:00Z,26.4966,-82.1479,7.16,1111122 
SCCF RECON,ioos:station:SCCF:12:1,2012-10-10T20:00:00Z,26.4966,-82.1479,7.39,1111122 
SCCF RECON,ioos:station:SCCF:12:1,2012-10-10T21:00:00Z,26.4966,-82.1479,7.06,1111122 
SCCF RECON,ioos:station:SCCF:12:1,2012-10-10T22:00:00Z,26.4966,-82.1479,7.27,1111122 
SCCF RECON,ioos:station:SCCF:12:1,2012-10-10T23:00:00Z,26.4966,-82.1479,7.04,1111122 
SCCF RECON,ioos:station:SCCF:12:1,2012-10-11T00:00:00Z,26.4966,-82.1479,7.51,1111122 
SCCF RECON,ioos:station:SCCF:12:1,2012-10-11T01:00:00Z,26.4966,-82.1479,7.88,1111122 
SCCF RECON,ioos:station:SCCF:12:1,2012-10-11T02:00:00Z,26.4966,-82.1479,7.31,1111122 
SCCF RECON,ioos:station:SCCF:12:1,2012-10-11T03:00:00Z,26.4966,-82.1479,7.38,1111122 
SCCF RECON,ioos:station:SCCF:12:1,2012-10-11T04:00:00Z,26.4966,-82.1479,7.04,1111122 
SCCF RECON,ioos:station:SCCF:12:1,2012-10-11T05:00:00Z,26.4966,-82.1479,7.36,1111122 
SCCF RECON,ioos:station:SCCF:12:1,2012-10-11T06:00:00Z,26.4966,-82.1479,7.5,1111122 
SCCF RECON,ioos:station:SCCF:12:1,2012-10-11T07:00:00Z,26.4966,-82.1479,7.62,1111122 
SCCF RECON,ioos:station:SCCF:12:1,2012-10-11T08:00:00Z,26.4966,-82.1479,6.52,1111122 
SCCF RECON,ioos:station:SCCF:12:1,2012-10-11T09:00:00Z,26.4966,-82.1479,6.87,1111122 
SCCF RECON,ioos:station:SCCF:12:1,2012-10-11T10:00:00Z,26.4966,-82.1479,6.42,1111122 
SCCF RECON,ioos:station:SCCF:12:1,2012-10-11T11:00:00Z,26.4966,-82.1479,6.14,1111122 
SCCF RECON,ioos:station:SCCF:12:1,2012-10-11T12:00:00Z,26.4966,-82.1479,6.75,1111122 
SCCF RECON,ioos:station:SCCF:12:1,2012-10-11T13:00:00Z,26.4966,-82.1479,6.46,1111122 
SCCF RECON,ioos:station:SCCF:12:1,2012-10-11T14:00:00Z,26.4966,-82.1479,6.0,1111122 
SCCF RECON,ioos:station:SCCF:12:1,2012-10-11T15:00:00Z,26.4966,-82.1479,6.35,1111122 
SCCF RECON,ioos:station:SCCF:12:1,2012-10-11T16:00:00Z,26.4966,-82.1479,7.45,1111122 
SCCF RECON,ioos:station:SCCF:12:1,2012-10-11T17:00:00Z,26.4966,-82.1479,7.17,1111122 
SCCF RECON,ioos:station:SCCF:12:1,2012-10-11T18:00:00Z,26.4966,-82.1479,8.53,1111122 
SCCF RECON,ioos:station:SCCF:12:1,2012-10-11T19:00:00Z,26.4966,-82.1479,9.66,1111122 
SCCF RECON,ioos:station:SCCF:12:1,2012-10-11T20:00:00Z,26.4966,-82.1479,11.16,1111122 
SCCF RECON,ioos:station:SCCF:12:1,2012-10-11T21:00:00Z,26.4966,-82.1479,8.87,1111122 
SCCF RECON,ioos:station:SCCF:12:1,2012-10-11T22:00:00Z,26.4966,-82.1479,8.7,1111122 
SCCF RECON,ioos:station:SCCF:12:1,2012-10-11T23:00:00Z,26.4966,-82.1479,7.95,1111122 
SCCF RECON,ioos:station:SCCF:12:1,2012-10-12T00:00:00Z,26.4966,-82.1479,8.5,1111122 
SCCF RECON,ioos:station:SCCF:12:1,2012-10-12T01:00:00Z,26.4966,-82.1479,8.54,1111122 
SCCF RECON,ioos:station:SCCF:12:1,2012-10-12T02:00:00Z,26.4966,-82.1479,8.09,1111122 
SCCF RECON,ioos:station:SCCF:12:1,2012-10-12T03:00:00Z,26.4966,-82.1479,8.55,1111122 
SCCF RECON,ioos:station:SCCF:12:1,2012-10-12T04:00:00Z,26.4966,-82.1479,9.73,1111122 
SCCF RECON,ioos:station:SCCF:12:1,2012-10-12T05:00:00Z,26.4966,-82.1479,10.0,1111122 
SCCF RECON,ioos:station:SCCF:12:1,2012-10-12T06:00:00Z,26.4966,-82.1479,9.41,1111122 
SCCF RECON,ioos:station:SCCF:12:1,2012-10-12T07:00:00Z,26.4966,-82.1479,9.34,1111122 
SCCF RECON,ioos:station:SCCF:12:1,2012-10-12T08:00:00Z,26.4966,-82.1479,8.71,1111122 
SCCF RECON,ioos:station:SCCF:12:1,2012-10-12T09:00:00Z,26.4966,-82.1479,8.32,1111122 
SCCF RECON,ioos:station:SCCF:12:1,2012-10-12T10:00:00Z,26.4966,-82.1479,8.66,1111122 
SCCF RECON,ioos:station:SCCF:12:1,2012-10-12T11:00:00Z,26.4966,-82.1479,8.33,1111122 
SCCF RECON,ioos:station:SCCF:12:1,2012-10-12T12:00:00Z,26.4966,-82.1479,8.01,1111122 
SCCF RECON,ioos:station:SCCF:12:1,2012-10-12T13:00:00Z,26.4966,-82.1479,7.47,1111122 